YAHSAT 1A

Last updated on Sun Apr 12 2026 00:02:52 GMT+0000 (Coordinated Universal Time)

1 37393U 11016B 26101.23030770 .00000103 00000+0 00000+0 0 9998 2 37393 0.0193 215.5225 0003016 181.1056 298.2414 1.00270857 41739
UTC large
Height (km)
Speed (km/s)
/
Latitude / Longitude
Inclination (degrees)
Orbital Period (minutes)
Azimuth
Elevation
Range (km)
Doppler Factor

Next 0 passes for location: London (51.5072 / 0.1276)

Sorry there are no passes over London.
YAHSAT 1A